TimeEST,TemperatureF,Dew PointF,Humidity,Sea Level PressureIn,VisibilityMPH,Wind Direction,Wind SpeedMPH,Gust SpeedMPH,PrecipitationIn,Events,Conditions,WindDirDegrees,DateUTC
12:43 AM,8.6,5.0,85,30.02,2.5,Calm,Calm,-,0.00,Snow,Light Snow,0,2013-01-26 05:43:00
12:56 AM,9.1,6.1,87,30.10,2.0,Calm,Calm,-,0.00,Snow,Light Snow,0,2013-01-26 05:56:00
1:19 AM,8.6,5.0,85,30.03,5.0,Calm,Calm,-,0.00,Snow,Light Snow,0,2013-01-26 06:19:00
1:26 AM,8.6,5.0,85,30.03,5.0,Calm,Calm,-,0.00,Snow,Light Snow,0,2013-01-26 06:26:00
1:56 AM,9.1,5.0,83,30.11,6.0,Calm,Calm,-,0.00,Snow,Light Snow,0,2013-01-26 06:56:00
2:08 AM,8.6,6.8,92,30.04,1.8,Calm,Calm,-,0.00,Snow,Light Snow,0,2013-01-26 07:08:00
2:15 AM,10.4,6.8,85,30.03,3.0,Calm,Calm,-,0.00,Snow,Light Snow,0,2013-01-26 07:15:00
2:56 AM,10.0,7.2,88,30.11,4.0,NW,4.6,-,0.00,Snow,Light Snow,310,2013-01-26 07:56:00
3:40 AM,10.4,6.8,85,30.05,4.0,North,4.6,-,0.00,Snow,Light Snow,350,2013-01-26 08:40:00
3:56 AM,10.0,7.2,88,30.12,4.0,NNW,5.8,-,0.00,Snow,Light Snow,340,2013-01-26 08:56:00
4:56 AM,9.1,6.1,87,30.14,4.0,NNW,4.6,-,0.00,Snow,Light Snow,340,2013-01-26 09:56:00
5:56 AM,8.1,5.0,87,30.16,4.0,North,4.6,-,0.00,Snow,Light Snow,350,2013-01-26 10:56:00
6:30 AM,6.8,3.2,85,30.10,2.0,North,3.5,-,0.00,Snow,Light Snow,10,2013-01-26 11:30:00
6:56 AM,6.1,3.0,87,30.18,3.0,Calm,Calm,-,0.00,Snow,Light Snow,0,2013-01-26 11:56:00
7:56 AM,5.0,1.0,84,30.21,7.0,Calm,Calm,-,0.00,,Mostly Cloudy,0,2013-01-26 12:56:00
8:56 AM,9.1,5.0,83,30.21,7.0,Calm,Calm,-,N/A,,Mostly Cloudy,0,2013-01-26 13:56:00
9:56 AM,11.1,8.1,87,30.25,10.0,North,-9999.0,-,N/A,,Overcast,0,2013-01-26 14:56:00
10:20 AM,12.2,6.8,79,30.18,10.0,WNW,4.6,-,0.00,,Overcast,290,2013-01-26 15:20:00
10:56 AM,14.0,5.0,67,30.25,10.0,Calm,Calm,-,0.00,,Scattered Clouds,0,2013-01-26 15:56:00
11:56 AM,17.1,5.0,59,30.24,10.0,Calm,Calm,-,N/A,,Scattered Clouds,0,2013-01-26 16:56:00
12:56 PM,16.2,7.2,68,30.25,10.0,WNW,6.9,-,N/A,,Overcast,300,2013-01-26 17:56:00
1:56 PM,16.2,9.1,74,30.26,10.0,NNW,8.1,-,0.00,,Mostly Cloudy,340,2013-01-26 18:56:00
2:56 PM,17.1,9.1,71,30.27,10.0,NNW,5.8,-,N/A,,Overcast,340,2013-01-26 19:56:00
3:56 PM,17.1,8.1,68,30.28,10.0,North,6.9,-,N/A,,Partly Cloudy,350,2013-01-26 20:56:00
4:56 PM,16.2,8.1,70,30.30,10.0,NNW,3.5,-,N/A,,Partly Cloudy,330,2013-01-26 21:56:00
5:56 PM,9.1,5.0,83,30.33,10.0,Calm,Calm,-,N/A,,Clear,0,2013-01-26 22:56:00
6:56 PM,5.0,2.1,88,30.35,10.0,Calm,Calm,-,N/A,,Clear,0,2013-01-26 23:56:00
7:56 PM,3.0,0.1,88,30.37,10.0,Calm,Calm,-,N/A,,Clear,0,2013-01-27 00:56:00
8:56 PM,2.1,-1.8,83,30.39,10.0,Calm,Calm,-,N/A,,Clear,0,2013-01-27 01:56:00
9:56 PM,2.1,-1.8,83,30.39,10.0,Calm,Calm,-,N/A,,Clear,0,2013-01-27 02:56:00
10:56 PM,2.1,-1.8,83,30.41,10.0,ENE,3.5,-,0.00,Snow,Light Snow,60,2013-01-27 03:56:00
11:34 PM,1.4,-2.2,85,30.34,10.0,Calm,Calm,-,0.00,Snow,Light Snow,0,2013-01-27 04:34:00
11:56 PM,1.0,-2.9,83,30.42,10.0,Calm,Calm,-,0.00,Snow,Light Snow,0,2013-01-27 04:56:00